Temperature
17 17 17 17 16 16 16 16 16 15 15 15 15 15 15 14 14 14 14 14 14 14 13 13 13 13 13 13 13 12 12 12 12 12 12 11 11 11 11 11 11 11 11
17 17 17 17 16 16 16 16 16 15 15 15 15 15 15 14 14 14 14 14 13 13 13 13 13 13 13 13 12 12 12 12 12 12 11 11 11 11 11 11 11 11 11
17 17 17 16 16 16 16 16 15 15 15 15 15 15 14 14 14 14 13 13 13 13 13 13 13 13 13 12 12 12 12 12 12 11 11 11 11 11 11 11 10 10 10
17 17 17 16 16 16 15 15 15 15 15 15 14 14 14 14 14 13 13 13 13 13 13 13 12 12 12 12 12 12 11 11 11 11 11 11 11 10 10 10 10 10 10
17 17 16 16 16 15 15 15 15 15 14 14 14 14 14 14 13 13 13 13 13 13 12 12 12 12 12 12 11 11 11 11 11 11 10 10 10 10 10 10 10 10 10
17 16 16 16 16 15 15 15 15 14 14 14 14 14 13 13 13 13 13 12 12 12 12 12 12 12 12 11 11 11 11 11 11 10 10 10 10 10 9 9 9 9 9
16 16 16 16 15 15 15 15 14 14 14 14 14 13 13 13 13 12 12 12 12 12 12 12 12 11 11 11 11 11 11 10 10 10 10 10 10 9 9 9 9 9 8
16 16 16 15 15 15 15 14 14 14 14 14 13 13 13 13 12 12 12 12 12 12 11 11 11 11 11 11 11 10 10 10 10 9 9 9 9 9 8 8 8 8 8
16 16 15 15 15 15 14 14 14 14 14 13 13 13 13 12 12 12 12 11 11 11 11 11 11 10 10 10 10 10 10 10 9 9 9 9 8 8 8 8 8 8 8
15 15 15 15 15 14 14 14 14 13 13 13 13 13 12 12 12 12 11 11 11 11 11 10 10 10 10 9 9 9 9 9 9 9 8 8 8 8 8 8 7 7 7
15 15 15 14 14 14 14 14 13 13 13 13 13 13 12 12 12 11 11 11 11 10 10 10 10 10 9 9 9 9 9 8 8 8 8 8 8 8 7 7 7 6 6
15 14 14 14 14 14 14 13 13 13 13 12 12 12 12 12 11 11 11 10 10 10 10 10 10 9 9 9 9 8 8 8 8 8 7 7 7 7 7 6 6 6 6
14 14 14 14 14 13 13 13 13 13 12 12 12 12 11 11 11 11 10 10 10 10 10 9 9 9 9 8 8 8 8 7 7 7 7 7 6 6 6 6 6 6 5
14 14 14 13 13 13 13 13 12 12 12 12 11 11 11 11 11 10 10 10 10 9 9 9 9 8 8 8 8 8 7 7 7 7 6 6 6 6 5 5 5 5 5
13 13 13 13 13 13 12 12 12 12 12 11 11 11 11 10 10 10 10 10 9 9 9 9 8 8 8 8 8 7 7 7 6 6 6 6 6 5 5 5 5 4 4
13 13 13 12 12 12 12 12 11 11 11 11 11 10 10 10 10 10 9 9 9 9 8 8 8 8 8 7 7 7 7 6 6 6 6 5 5 5 5 4 4 4 4
12 12 12 12 12 12 11 11 11 11 10 10 10 10 10 10 9 9 9 9 8 8 8 8 8 8 7 7 7 7 6 6 6 5 5 5 5 4 4 4 4 4 3
12 11 11 11 11 11 11 11 10 10 10 10 10 9 9 9 9 9 8 8 8 8 8 8 7 7 7 7 6 6 6 6 5 5 5 5 4 4 4 4 3 3 3
11 11 11 11 11 11 10 10 10 10 10 9 9 9 9 9 8 8 8 8 8 8 8 7 7 7 6 6 6 5 5 5 5 5 4 4 4 4 4 3 3 3 2
11 10 10 10 10 10 10 10 9 9 9 9 9 9 8 8 8 8 8 8 7 7 7 7 7 6 6 6 5 5 5 5 4 4 4 4 4 3 3 3 3 2 2
10 10 10 10 10 9 9 9 9 9 9 8 8 8 8 8 8 8 7 7 7 7 7 6 6 6 6 6 5 5 5 4 4 4 4 3 3 3 3 2 2 2 2
9 9 9 9 9 9 9 9 9 8 8 8 8 8 8 7 7 7 7 7 7 6 6 6 6 6 5 5 5 5 4 4 4 3 3 3 3 2 2 2 2 1 1
9 9 9 9 8 8 8 8 8 8 8 8 8 7 7 7 7 7 7 6 6 6 6 6 5 5 5 5 5 4 4 4 4 3 3 3 2 2 2 2 1 1 1
8 8 8 8 8 8 8 8 8 8 8 7 7 7 7 7 7 6 6 6 6 6 6 5 5 5 5 5 4 4 4 3 3 3 2 2 2 2 1 1 1 1 0
8 8 7 7 7 7 7 7 7 7 7 7 7 7 7 6 6 6 6 6 6 5 5 5 5 5 4 4 4 4 3 3 3 2 2 2 1 1 1 1 0 0 -0
8 7 7 7 7 7 7 7 7 7 7 6 6 6 6 6 6 6 6 6 5 5 5 5 4 4 4 4 4 3 3 3 2 2 2 1 1 1 1 0 0 -0 -1
Wind_Speed
5 5 4 4 3 3 3 3 2 2 3 3 3 3 3 2 3 3 2 3 3 1 1 2 1 1 1 1 2 2 2 2 2 2 1 2 2 3 4 5 5 5 6
5 5 5 4 3 3 3 2 2 2 2 3 3 3 3 2 3 4 3 3 3 2 2 2 1 1 1 1 2 2 2 2 3 2 1 1 1 2 2 3 4 4 5
5 5 5 4 4 4 3 3 3 3 2 2 3 3 3 3 3 3 3 3 3 3 2 2 2 2 2 1 1 1 1 1 2 2 1 1 1 1 2 2 3 4 4
5 5 5 5 5 4 3 3 3 3 3 3 2 3 3 3 3 3 3 3 2 2 2 2 2 3 3 3 2 2 2 2 2 1 1 1 1 2 1 1 2 2 3
5 5 5 5 4 4 3 3 3 3 3 3 3 2 2 2 3 3 3 3 3 2 1 1 2 2 2 2 2 2 3 2 2 1 1 1 1 1 1 1 2 3 2
5 5 5 5 4 4 4 3 3 3 2 3 3 2 2 2 3 5 5 4 3 3 1 1 1 1 1 1 2 2 4 4 3 2 2 2 3 3 2 2 1 1 3
5 4 5 6 5 5 5 4 4 3 3 3 2 2 2 3 3 4 5 4 3 2 2 1 0 0 1 0 0 1 1 2 4 3 3 4 3 3 2 2 2 2 3
4 4 5 5 6 5 5 5 4 3 3 3 2 3 2 2 3 4 5 4 2 2 2 2 2 2 1 1 1 1 1 2 2 2 3 4 3 2 3 3 3 2 1
4 4 5 6 6 6 6 5 4 4 4 3 3 3 3 3 3 4 5 3 2 1 1 1 2 2 2 1 2 1 1 2 2 1 1 2 2 1 1 1 1 0 2
5 5 4 5 6 7 7 5 4 4 4 4 3 3 3 3 3 4 5 3 2 1 0 1 1 2 2 1 3 2 2 2 1 1 2 3 2 2 1 1 2 1 1
4 3 3 4 5 6 5 4 4 4 4 3 3 2 2 2 3 4 5 4 4 2 1 1 2 2 2 1 2 3 4 2 1 1 0 1 2 2 2 1 0 1 2
3 3 3 3 4 4 5 4 4 5 5 4 3 1 1 1 2 3 4 4 3 3 2 2 2 2 2 2 2 2 2 1 1 1 0 1 1 2 2 1 1 0 1
4 3 3 3 3 4 5 5 4 4 4 4 3 2 1 1 2 3 3 3 3 2 2 2 1 1 1 1 1 2 1 1 2 1 1 2 2 2 1 1 1 2 3
4 4 3 3 3 3 3 4 4 4 4 4 4 3 2 1 2 2 2 2 2 2 1 0 0 1 0 0 1 1 1 2 2 2 2 2 1 1 1 1 1 1 2
4 4 3 3 3 3 3 3 4 4 5 5 5 5 4 4 4 5 4 3 3 2 2 1 1 1 0 1 1 1 1 1 2 2 2 2 1 2 2 1 1 1 1
4 4 3 3 3 3 3 1 1 1 2 3 4 4 3 4 3 4 4 4 3 4 2 1 1 2 2 2 2 2 2 2 3 2 2 2 2 2 2 2 1 1 2
4 4 3 3 3 3 3 3 1 1 2 1 2 3 3 2 3 3 4 4 4 4 2 2 2 3 3 3 3 3 3 3 2 2 3 3 3 2 2 2 2 2 3
3 3 3 3 3 3 3 3 3 3 1 0 1 1 1 2 2 3 3 3 2 2 2 3 3 3 3 3 3 3 3 2 2 2 3 3 3 3 3 3 3 3 3
3 3 2 2 3 3 3 3 3 3 2 1 0 1 0 1 1 2 4 2 3 3 3 3 3 3 3 4 3 3 3 3 3 3 3 3 3 3 3 3 3 4 4
3 3 3 3 3 3 3 3 3 3 2 2 2 1 1 1 1 1 2 2 3 3 3 3 3 4 3 3 3 3 3 3 3 3 3 3 3 3 4 4 4 4 4
3 3 4 3 3 3 3 3 3 3 3 2 2 2 3 3 3 3 3 3 3 4 4 3 3 3 3 3 3 3 4 3 3 3 3 3 3 3 3 3 4 4 4
3 3 3 3 2 2 2 2 2 3 3 3 2 2 3 2 3 3 3 3 3 4 4 4 4 4 4 4 4 4 4 4 4 4 3 3 3 3 3 3 3 4 4
3 3 3 2 2 2 2 2 2 2 3 2 2 2 2 3 3 3 3 3 3 3 4 4 4 4 4 5 5 5 5 5 5 5 4 3 3 3 3 3 4 4 4
4 4 3 2 2 2 2 2 2 2 3 3 2 2 3 3 3 3 3 3 3 3 3 4 4 5 6 5 5 5 6 6 6 5 5 4 3 3 3 3 4 5 5
4 4 3 3 3 3 2 2 2 2 3 2 2 2 2 2 2 2 2 2 2 2 3 3 3 4 5 5 4 4 5 6 5 4 4 3 3 3 3 4 4 4 5
4 4 3 3 3 3 3 3 3 3 3 3 2 2 2 2 2 2 2 2 2 2 3 3 3 4 4 4 4 5 5 5 5 5 4 3 3 3 4 4 5 4 5
Wind_Direction
169 168 156 162 163 149 152 175 179 161 142 141 151 148 148 147 136 133 141 137 142 140 127 136 157 127 121 123 121 121 131 141 189 275 293 330 357 353 355 1 359 359 358
171 161 164 162 153 151 167 178 162 152 147 153 139 137 147 151 148 156 160 156 160 164 172 153 180 128 131 128 134 149 164 170 177 230 296 324 318 327 336 349 354 354 356
158 157 161 162 162 174 185 172 154 150 145 134 130 146 158 155 153 164 161 157 165 175 173 170 188 146 153 158 152 161 176 158 163 182 260 296 310 332 341 342 351 355 353
157 161 169 181 184 188 183 165 163 155 152 152 156 162 158 152 151 153 147 145 151 163 175 182 188 176 190 184 176 185 155 137 136 153 256 305 304 309 345 322 331 338 339
158 169 183 185 181 172 168 164 158 152 158 156 149 146 145 150 157 153 150 149 152 152 168 213 211 196 207 194 189 183 157 152 149 166 233 316 310 309 282 271 297 312 319
170 185 181 168 164 167 171 161 150 151 150 143 153 158 165 177 168 159 149 153 157 160 176 245 277 238 245 236 230 196 170 173 184 185 211 235 261 253 249 259 267 326 310
175 180 176 172 171 178 171 156 162 167 157 154 168 166 183 203 180 164 157 149 158 177 189 197 264 358 31 111 17 348 235 218 196 186 206 234 243 238 217 237 236 232 255
176 179 178 175 176 171 164 169 177 172 167 172 177 185 192 214 192 172 160 142 150 182 202 201 195 239 223 156 133 56 336 313 252 213 217 237 242 228 210 221 227 247 280
188 192 187 180 176 172 176 184 183 174 178 182 179 184 191 227 203 179 152 146 152 203 232 201 196 225 239 176 146 177 297 319 356 304 284 305 321 322 145 101 72 42 296
208 203 190 180 179 183 185 184 178 175 184 179 181 191 191 213 207 179 159 151 158 186 280 284 249 248 265 211 174 181 227 268 316 8 9 360 10 12 20 156 188 207 256
196 178 172 178 183 182 175 174 166 161 157 161 168 190 196 204 198 180 165 164 175 182 202 252 260 260 269 256 215 203 223 221 162 154 18 355 7 14 9 12 164 198 222
159 159 170 174 176 173 164 166 160 154 153 158 158 168 236 218 188 193 187 186 175 178 210 228 237 243 253 255 237 224 213 140 128 131 101 318 309 303 311 343 16 335 256
151 163 169 163 161 160 165 165 158 160 165 172 170 183 224 230 219 210 201 193 186 191 210 218 236 242 250 259 237 222 185 163 163 177 229 258 259 261 288 348 1 5 351
160 164 158 149 146 149 154 161 166 172 174 178 182 192 204 213 215 197 190 184 177 181 187 148 44 25 35 329 346 289 226 201 198 212 241 256 268 280 282 278 282 305 319
155 157 156 156 155 155 159 171 181 192 188 188 197 191 188 211 223 201 177 180 180 176 138 99 93 96 77 335 324 289 234 221 237 238 226 234 254 274 286 291 278 298 287
151 158 160 157 157 153 147 115 77 184 191 190 182 182 207 218 210 193 190 184 175 152 121 159 199 212 222 233 243 266 262 244 245 241 231 231 237 242 263 287 285 263 273
160 164 161 161 162 162 160 162 163 32 65 132 171 184 197 197 190 189 185 174 168 149 152 212 225 226 231 234 236 242 253 254 248 235 235 236 236 240 254 260 262 265 271
162 167 161 169 173 172 176 182 182 179 180 297 311 248 205 189 178 168 146 125 158 187 211 224 234 233 231 230 235 244 251 253 246 245 245 242 238 243 250 253 255 257 264
159 170 171 168 168 170 170 172 178 182 182 193 85 11 21 108 120 136 137 164 201 219 226 232 235 234 234 231 233 235 236 239 241 239 241 241 240 242 248 249 255 265 267
160 157 152 160 161 161 160 165 175 181 184 191 210 212 151 113 150 190 203 216 222 233 233 232 238 238 235 235 236 235 240 244 241 243 243 241 241 240 243 247 247 256 262
157 159 143 145 160 171 173 176 183 183 191 205 228 221 195 201 208 215 223 228 230 237 239 238 241 240 236 231 231 232 235 244 243 242 244 244 240 248 252 249 250 254 263
155 154 157 166 172 179 182 179 181 192 202 211 237 235 218 213 221 233 237 240 237 238 236 233 236 237 232 229 229 231 236 242 241 238 241 246 243 244 249 254 259 262 262
148 149 152 160 173 183 179 178 189 200 208 215 219 219 220 227 233 240 247 252 249 246 237 229 236 245 241 236 228 224 231 236 231 223 231 241 241 242 243 251 258 265 265
153 156 162 171 179 195 200 204 212 211 214 219 218 222 229 236 243 250 254 258 254 250 241 234 234 240 247 249 245 237 235 234 227 218 217 228 238 244 247 252 259 263 264
159 165 174 182 190 202 211 216 226 224 220 222 226 231 232 239 251 263 267 256 249 252 254 247 240 239 244 250 245 237 237 237 234 225 216 213 227 242 249 253 260 266 270
172 176 181 184 191 200 206 212 223 226 225 227 228 231 228 230 243 256 268 262 263 262 259 252 253 253 253 245 237 235 237 236 236 234 215 209 223 242 251 259 264 266 269
Height
1538 1540 1542 1543 1544 1545 1546 1547 1547 1548 1548 1549 1549 1550 1550 1550 1550 1551 1551 1551 1551 1552 1552 1552 1552 1551 1551 1551 1551 1551 1551 1550 1549 1549 1549 1549 1548 1547 1546 1545 1544 1543 1542
1536 1538 1540 1541 1543 1544 1544 1545 1546 1546 1547 1547 1548 1548 1548 1549 1549 1549 1549 1549 1550 1550 1550 1550 1550 1550 1550 1550 1549 1549 1549 1549 1548 1547 1547 1547 1546 1545 1544 1543 1542 1541 1540
1534 1536 1538 1539 1541 1542 1543 1544 1544 1545 1545 1546 1546 1547 1547 1547 1547 1548 1548 1548 1548 1548 1548 1548 1548 1548 1548 1548 1548 1547 1547 1547 1547 1546 1545 1545 1544 1543 1542 1541 1540 1539 1538
1532 1534 1535 1537 1538 1540 1541 1542 1542 1543 1543 1544 1544 1545 1545 1546 1546 1546 1546 1546 1546 1546 1546 1546 1546 1546 1546 1546 1545 1545 1545 1545 1544 1544 1543 1542 1542 1541 1540 1538 1537 1537 1536
1530 1531 1532 1534 1536 1537 1539 1540 1540 1541 1542 1542 1543 1543 1544 1544 1544 1544 1544 1544 1544 1544 1544 1544 1544 1544 1544 1543 1543 1543 1543 1542 1542 1541 1540 1539 1539 1538 1537 1536 1534 1533 1533
1528 1529 1531 1532 1534 1535 1536 1537 1538 1539 1540 1540 1541 1541 1542 1542 1542 1542 1542 1542 1542 1542 1542 1542 1542 1542 1541 1541 1541 1541 1540 1540 1539 1538 1537 1536 1535 1535 1534 1533 1532 1530 1529
1525 1527 1529 1530 1531 1533 1534 1535 1536 1537 1537 1538 1539 1539 1539 1540 1540 1540 1540 1540 1540 1540 1540 1540 1540 1539 1539 1539 1539 1538 1538 1537 1537 1536 1534 1534 1533 1532 1531 1530 1529 1527 1526
1523 1524 1526 1527 1528 1530 1531 1532 1533 1534 1535 1535 1536 1537 1537 1538 1538 1538 1538 1538 1538 1538 1538 1538 1537 1537 1537 1537 1536 1535 1535 1534 1533 1532 1532 1531 1530 1529 1528 1528 1526 1525 1523
1520 1521 1523 1524 1525 1526 1528 1529 1530 1531 1532 1533 1533 1534 1534 1535 1535 1535 1535 1535 1535 1535 1535 1535 1535 1535 1535 1534 1533 1532 1531 1531 1530 1529 1529 1528 1527 1526 1525 1524 1523 1521 1519
1517 1518 1520 1521 1522 1523 1525 1526 1527 1528 1529 1530 1531 1531 1532 1532 1532 1533 1533 1532 1532 1532 1532 1532 1532 1532 1532 1531 1530 1529 1528 1527 1526 1525 1525 1524 1523 1522 1521 1520 1519 1518 1516
1514 1516 1517 1518 1519 1520 1522 1523 1524 1526 1527 1527 1528 1528 1529 1529 1529 1530 1530 1530 1530 1530 1529 1529 1529 1529 1528 1528 1527 1526 1525 1524 1523 1522 1521 1520 1519 1518 1517 1517 1516 1514 1513
1511 1513 1514 1515 1516 1517 1518 1520 1521 1522 1523 1524 1524 1525 1526 1526 1526 1527 1527 1527 1527 1527 1526 1526 1526 1526 1525 1524 1523 1522 1522 1520 1519 1518 1517 1516 1515 1514 1514 1513 1512 1511 1509
1508 1510 1511 1512 1513 1514 1515 1516 1517 1518 1519 1520 1521 1521 1522 1523 1523 1524 1524 1524 1524 1524 1523 1523 1522 1522 1521 1520 1520 1519 1518 1516 1515 1514 1513 1512 1512 1511 1510 1509 1508 1507 1505
1505 1506 1508 1509 1509 1511 1512 1513 1514 1514 1515 1516 1517 1518 1518 1519 1520 1520 1520 1520 1520 1520 1520 1519 1519 1518 1517 1517 1516 1515 1514 1513 1512 1511 1510 1509 1508 1507 1506 1505 1503 1502 1501
1502 1503 1505 1506 1507 1508 1509 1510 1511 1512 1513 1514 1514 1515 1515 1515 1516 1517 1517 1517 1517 1516 1516 1515 1514 1514 1513 1512 1512 1511 1510 1509 1508 1507 1506 1505 1504 1503 1502 1501 1499 1498 1496
1500 1501 1502 1502 1504 1505 1506 1507 1508 1509 1510 1511 1511 1512 1512 1513 1513 1513 1513 1513 1513 1513 1512 1511 1510 1510 1509 1508 1508 1507 1506 1505 1504 1503 1502 1501 1500 1499 1498 1497 1495 1494 1492
1497 1498 1499 1500 1501 1502 1502 1503 1504 1506 1507 1507 1508 1508 1509 1509 1509 1509 1510 1509 1509 1509 1508 1507 1506 1506 1505 1505 1504 1503 1502 1501 1500 1499 1498 1497 1496 1495 1494 1492 1491 1489 1487
1494 1495 1496 1497 1498 1499 1499 1500 1501 1502 1502 1502 1504 1504 1505 1505 1505 1505 1505 1505 1504 1504 1503 1503 1502 1502 1501 1500 1500 1499 1498 1496 1496 1494 1493 1492 1491 1490 1489 1487 1486 1485 1483
1491 1492 1493 1494 1494 1495 1496 1497 1498 1498 1499 1499 1499 1500 1501 1501 1501 1501 1501 1501 1500 1499 1499 1498 1498 1497 1497 1496 1495 1494 1493 1492 1491 1490 1489 1488 1486 1485 1484 1483 1482 1480 1478
1488 1489 1490 1491 1491 1492 1492 1493 1494 1495 1495 1495 1496 1496 1496 1496 1496 1496 1496 1496 1496 1495 1495 1494 1493 1493 1492 1491 1490 1489 1489 1488 1487 1485 1484 1483 1482 1481 1479 1478 1477 1475 1474
1485 1486 1486 1487 1488 1488 1489 1490 1490 1491 1491 1492 1492 1493 1493 1493 1492 1492 1492 1492 1491 1491 1490 1490 1489 1488 1487 1486 1485 1485 1484 1483 1482 1481 1480 1479 1477 1476 1474 1473 1472 1471 1469
1482 1482 1483 1484 1484 1485 1486 1486 1487 1488 1488 1488 1489 1489 1489 1489 1489 1488 1488 1487 1487 1487 1486 1485 1484 1484 1483 1482 1481 1480 1479 1478 1477 1476 1475 1474 1473 1471 1470 1468 1467 1466 1464
1479 1479 1480 1480 1481 1482 1482 1483 1484 1484 1484 1485 1485 1485 1485 1485 1484 1484 1483 1483 1482 1482 1482 1481 1480 1479 1478 1477 1476 1475 1474 1473 1473 1472 1470 1469 1468 1466 1465 1463 1462 1461 1459
1476 1476 1477 1477 1478 1479 1479 1479 1480 1480 1481 1481 1481 1481 1481 1480 1480 1480 1479 1479 1478 1477 1477 1476 1475 1474 1473 1472 1471 1470 1469 1469 1468 1467 1466 1464 1463 1461 1460 1459 1457 1456 1455
1473 1473 1474 1474 1475 1475 1476 1476 1476 1477 1477 1477 1477 1477 1476 1476 1476 1475 1475 1474 1474 1473 1472 1472 1471 1470 1469 1467 1466 1465 1465 1464 1463 1462 1460 1459 1458 1457 1455 1454 1453 1452 1450
1470 1470 1471 1471 1472 1472 1472 1472 1473 1473 1473 1473 1473 1473 1472 1472 1471 1471 1470 1470 1469 1468 1467 1467 1466 1465 1464 1463 1462 1461 1460 1459 1458 1457 1456 1454 1453 1452 1451 1449 1448 1447 1446